COSMOS 1275 DEB

Satellite information

Favourite Embed

Satellite Type and Status

DEBRISIN ORBIT

Key statistics

Satellite COSMOS 1275 DEB at a glance.

Uptime

16166

Days in orbit

Revolutions

≈ 14.0

Per day

Orbit

LEO

Low Earth Orbit

Inclination

82.9

Latest

Satellite identification and parameters

Extended collection of information and parameters for COSMOS 1275 DEB.

Object identification

Identified? True

Debris? True

Object name: COSMOS 1275 DEB

International designator: 1981-053KW

Object number (NORAD): 17627

Object ID (CCSDS): 17627

Country: COMMONWEALTH OF INDEPENDENT STATES (CIS)

Current information (Y/N): Y

RCS size: SMALL

Orbital parameters

Period: 102.862 minutes

Inclination: 82.9238 deg

SMA: 7272.18 km

Apoapsis: 927.726 km

Periapsis: 860.364 km

RAAN: 214.858 deg

Eccentricy: 0.0046315

Argument of periapsis: 167.526 deg

Mean anomaly: 192.7069 deg

Mean motion: 13.99928312 rev/day

Mean motion (dot): 0.00001924 rev/day2

B* drag term: 0.0012872964 1/REarth

Two-line elements (TLE)

Creation date: Sept. 7, 2025, 3:09 a.m.

Reference frame: TEME

Reference center: EARTH

Epoch: Sept. 6, 2025, 9:34 p.m. UTC

TLE line 0: 0 COSMOS 1275 DEB

TLE line 1: 1 17627U 81053KW 25249.89914322 .00001924 00000-0 12873-2 0 9999

TLE line 2: 2 17627 82.9238 214.8580 0046315 167.5260 192.7069 13.99928312 45977

Live tracking on map

Real-time ground track for satellite COSMOS 1275 DEB.

In-orbit conjunctions

A list of the most updated potential collisions computed for object COSMOS 1275 DEB.

Target Orbit TCA Probability of collision Miss distance Type
SL-3 DEB LEO 2025-07-30 23:39:42 0.0002176974 141.0 (m) DEBRIS
ELECTRON KICK STAGE R/B SSO 2024-09-10 18:08:10 0.0001738143 385.0 (m) ROCKET BODY

Associated space launch

Navigation satellite providing location information for the Tsiklon-B navigation system

COSMOS 1275 DEB was lifted into orbit during the mission ‘Kosmos-3M | Parus 27’, on board a Kosmos-3M space rocket.

The launch took place on June 4, 1981, 3:41 p.m. from 132/2.

For more information about the launch, click the button.

Launch to space Kosmos-3M | Parus 27
Kosmos-3M | Parus 27

Agency: N/A

Status: Launch Successful

Launch date: June 4, 1981, 3:41 p.m. UTC

Rocket: Kosmos-3M

Launch pad: 132/2

Location: Plesetsk Cosmodrome, Russian Federation

...

Latest news about this satellite

There are no fresh news available about this satellite. Check back as we update our databases every day.


Newsletter sign-up

Weekly statistics, charts and insights to help you stay on top of the space industry.